Starlink 32457

operational
NORAD ID: 61717 Int'l Des: 2024-196 Owner: SPXS Country: US Constellation: starlink
LEOCIRCULAR

Starlink 32457について

説明を読み込み中...

リアルタイム位置

3D地球を読み込み中...

次回通過

高度履歴

Altitude vs Time

uPlot chart will show altitude changes over time

軌道要素

1 61717U 24196L 25259.20129150 -.00005546 00000-0 -17518-3 0 9994
2 61717 53.1573 191.6758 0001391 107.3547 252.7607 15.30212423 50441
Epoch: Sep 16, 2025 • Age: 14 hours

現在のステータス

高度 493.9 km
速度 7.62 km/s
衛星直下点 -51.33°S, 154.62°W
打ち上げ日 Oct 30, 2024
運用期間 0.8 years
タイプ internet

技術仕様

分類 Payload
質量 730.00 kg
乾燥質量 700.00 kg
総質量 730.00 kg
長さ 0.30 m
直径 4.10 m
スパン 29.00 m
形状 Box + pan
製造者 SPXS
バスタイプ Starlink V2M
フェーズステータス In Orbit
所有者/国 SPXS/US

大規模コンステレーション

Loading constellations...